Temp
-9 -9 -9 -9 -9 -9 -9 -9 -9 -9 -9 -9 -9 -9 -9 -9 -9 -9 -9 -9 -10 -10 -10 -10 -10 -10 -10 -10 -10 -10 -10 -10 -10 -10 -10 -10 -10 -11 -11 -11 -10 -11 -11 -11 -11 -11 -10 -10 -10
-8 -8 -8 -9 -9 -9 -9 -9 -9 -9 -9 -9 -9 -9 -9 -9 -9 -10 -9 -9 -9 -9 -9 -10 -10 -10 -10 -10 -10 -10 -10 -10 -10 -10 -10 -10 -10 -10 -10 -10 -11 -11 -11 -11 -11 -11 -11 -11 -10
-8 -8 -8 -8 -9 -9 -9 -9 -9 -9 -9 -9 -9 -9 -9 -9 -9 -9 -10 -10 -9 -9 -9 -9 -9 -10 -10 -10 -10 -10 -10 -10 -10 -10 -10 -10 -10 -10 -10 -10 -10 -10 -10 -10 -10 -11 -11 -11 -11
-9 -9 -9 -9 -9 -9 -9 -9 -9 -9 -9 -9 -9 -10 -9 -9 -9 -10 -10 -10 -9 -9 -9 -9 -9 -10 -10 -10 -10 -10 -10 -10 -10 -10 -10 -10 -10 -10 -10 -10 -10 -10 -10 -10 -10 -10 -10 -10 -11
-9 -9 -9 -9 -9 -9 -9 -9 -9 -9 -10 -10 -10 -10 -10 -10 -10 -10 -10 -10 -10 -9 -9 -9 -9 -9 -9 -9 -10 -10 -9 -9 -9 -10 -10 -10 -10 -10 -10 -10 -10 -10 -10 -10 -10 -10 -10 -10 -10
-9 -9 -9 -9 -9 -9 -9 -9 -10 -10 -10 -10 -10 -10 -10 -10 -10 -10 -10 -10 -10 -9 -9 -9 -9 -9 -9 -9 -9 -9 -9 -9 -9 -10 -10 -10 -10 -10 -10 -10 -10 -10 -10 -10 -10 -10 -10 -10 -10
-9 -9 -9 -9 -9 -9 -9 -9 -9 -10 -10 -10 -10 -10 -10 -10 -10 -10 -10 -10 -10 -10 -9 -9 -9 -9 -9 -9 -9 -9 -9 -9 -9 -9 -9 -10 -10 -10 -9 -10 -10 -10 -10 -11 -11 -11 -11 -11 -10
-9 -9 -9 -9 -9 -9 -9 -9 -9 -9 -10 -10 -10 -9 -10 -10 -10 -10 -10 -10 -10 -10 -9 -9 -9 -9 -9 -9 -9 -9 -9 -9 -9 -9 -9 -9 -9 -9 -9 -9 -9 -9 -10 -10 -10 -10 -11 -11 -11
-9 -9 -9 -9 -9 -9 -9 -9 -9 -9 -9 -9 -9 -10 -10 -10 -10 -10 -10 -10 -10 -9 -9 -9 -9 -9 -9 -9 -9 -9 -9 -9 -10 -9 -9 -9 -9 -10 -10 -10 -10 -10 -10 -10 -10 -10 -10 -10 -10
-9 -9 -9 -9 -9 -9 -10 -10 -10 -10 -10 -10 -10 -9 -9 -9 -10 -10 -10 -10 -10 -10 -9 -10 -10 -9 -9 -9 -9 -9 -10 -10 -10 -10 -10 -9 -9 -9 -9 -9 -10 -10 -9 -10 -10 -10 -10 -11 -11
-9 -9 -9 -9 -9 -9 -10 -10 -10 -10 -10 -10 -10 -10 -10 -10 -10 -10 -10 -10 -9 -9 -9 -9 -9 -9 -9 -9 -9 -9 -9 -10 -10 -10 -9 -9 -10 -10 -10 -10 -10 -9 -9 -9 -9 -10 -10 -10 -10
-9 -9 -9 -9 -9 -9 -9 -9 -10 -10 -10 -10 -10 -10 -10 -10 -10 -10 -10 -10 -10 -10 -9 -9 -9 -9 -9 -9 -9 -10 -10 -10 -10 -10 -10 -10 -10 -10 -10 -10 -10 -9 -9 -9 -9 -10 -10 -10 -10
-9 -9 -9 -9 -9 -9 -9 -9 -10 -10 -10 -10 -10 -10 -10 -11 -10 -10 -10 -10 -10 -9 -9 -9 -9 -9 -9 -9 -9 -10 -10 -10 -10 -10 -10 -10 -10 -10 -10 -10 -10 -10 -10 -10 -10 -10 -10 -10 -10
-9 -9 -9 -10 -10 -10 -9 -9 -10 -10 -10 -10 -10 -10 -10 -10 -10 -11 -10 -10 -10 -9 -9 -9 -9 -9 -9 -9 -10 -10 -10 -10 -10 -10 -10 -10 -10 -10 -10 -10 -10 -10 -10 -10 -10 -10 -10 -11 -11
-10 -9 -10 -10 -10 -10 -9 -9 -10 -10 -10 -10 -10 -10 -10 -10 -10 -10 -10 -10 -10 -10 -10 -9 -9 -9 -9 -10 -10 -10 -10 -10 -10 -10 -10 -10 -10 -11 -11 -10 -11 -11 -11 -11 -10 -10 -11 -11 -12
-9 -9 -9 -10 -10 -10 -10 -9 -10 -10 -10 -10 -10 -10 -10 -10 -10 -11 -10 -10 -10 -10 -10 -10 -10 -10 -9 -10 -10 -10 -10 -10 -11 -11 -11 -11 -11 -11 -11 -11 -11 -11 -11 -10 -10 -11 -11 -12 -13
-10 -10 -9 -10 -10 -10 -10 -10 -10 -10 -10 -10 -10 -10 -10 -10 -10 -11 -11 -10 -10 -10 -10 -10 -10 -10 -10 -10 -10 -10 -10 -11 -11 -11 -11 -11 -11 -11 -11 -11 -11 -11 -11 -11 -11 -12 -12 -13 -14
-10 -10 -10 -10 -10 -10 -10 -10 -10 -10 -10 -10 -10 -10 -10 -10 -11 -10 -10 -11 -11 -11 -11 -11 -10 -10 -10 -10 -10 -11 -11 -11 -11 -11 -11 -11 -11 -11 -11 -11 -11 -11 -11 -11 -12 -12 -13 -14 -14
-11 -10 -10 -10 -10 -10 -10 -9 -10 -10 -10 -10 -10 -10 -10 -10 -11 -11 -10 -10 -11 -11 -11 -11 -11 -11 -11 -11 -11 -11 -11 -11 -11 -11 -11 -11 -11 -11 -11 -11 -12 -12 -12 -13 -13 -13 -14 -14 -15
-11 -11 -11 -11 -11 -10 -10 -10 -10 -10 -10 -10 -10 -11 -11 -11 -11 -11 -11 -11 -11 -11 -11 -11 -11 -11 -11 -11 -11 -11 -11 -11 -11 -11 -11 -11 -11 -12 -12 -12 -12 -12 -13 -13 -13 -14 -14 -15 -15
-11 -11 -11 -11 -11 -11 -10 -9 -9 -9 -10 -10 -11 -11 -11 -11 -11 -11 -11 -11 -11 -11 -11 -11 -11 -11 -11 -11 -11 -11 -11 -12 -12 -12 -12 -12 -12 -12 -12 -12 -13 -13 -13 -13 -14 -15 -15 -16 -16
-12 -12 -12 -12 -12 -11 -10 -8 -9 -9 -9 -10 -11 -11 -12 -11 -11 -11 -11 -11 -12 -12 -12 -11 -11 -12 -12 -11 -11 -11 -12 -12 -12 -12 -12 -12 -12 -12 -12 -13 -13 -13 -13 -14 -15 -15 -16 -17 -17
-12 -12 -12 -12 -12 -11 -10 -10 -9 -9 -9 -9 -10 -12 -12 -12 -12 -12 -12 -12 -12 -12 -11 -11 -12 -12 -12 -11 -11 -11 -12 -12 -12 -13 -12 -13 -13 -13 -13 -14 -14 -13 -14 -15 -16 -16 -17 -17 -18
-12 -13 -12 -12 -12 -10 -10 -10 -9 -9 -9 -10 -10 -12 -11 -12 -12 -12 -12 -12 -12 -12 -12 -12 -12 -12 -12 -12 -12 -12 -12 -13 -13 -12 -12 -12 -13 -13 -13 -14 -14 -14 -15 -16 -16 -17 -18 -18 -18
-13 -13 -13 -12 -11 -10 -10 -10 -8 -9 -10 -10 -11 -11 -11 -12 -12 -12 -13 -13 -12 -12 -12 -12 -12 -12 -12 -12 -12 -13 -13 -13 -13 -12 -13 -13 -13 -14 -14 -14 -14 -15 -16 -16 -17 -18 -18 -18 -18
-13 -13 -14 -12 -12 -10 -10 -8 -8 -9 -10 -11 -11 -11 -12 -13 -13 -13 -13 -14 -13 -12 -11 -12 -12 -12 -12 -13 -13 -13 -13 -12 -12 -13 -13 -13 -14 -14 -14 -14 -14 -15 -17 -17 -18 -18 -19 -19 -19
-12 -13 -14 -14 -13 -11 -9 -8 -8 -10 -10 -11 -12 -12 -13 -13 -13 -13 -14 -15 -13 -12 -12 -12 -13 -13 -12 -13 -13 -13 -13 -13 -13 -13 -13 -14 -14 -15 -14 -14 -15 -16 -17 -18 -18 -18 -19 -19 -19
-14 -14 -14 -15 -14 -13 -8 -9 -10 -11 -11 -11 -13 -12 -13 -14 -15 -14 -15 -14 -13 -12 -11 -11 -13 -13 -13 -13 -13 -13 -13 -13 -14 -14 -14 -14 -15 -14 -14 -14 -15 -16 -18 -18 -18 -18 -19 -20 -20
-15 -14 -15 -15 -14 -14 -12 -7 -9 -11 -11 -12 -13 -13 -13 -14 -15 -14 -14 -14 -13 -13 -12 -12 -13 -13 -13 -13 -13 -14 -14 -14 -14 -14 -15 -15 -15 -14 -15 -15 -16 -17 -18 -19 -19 -19 -19 -20 -20
-13 -14 -14 -14 -14 -14 -15 -8 -9 -11 -12 -12 -13 -13 -13 -13 -15 -13 -13 -13 -13 -12 -12 -13 -13 -14 -14 -14 -14 -14 -14 -15 -15 -15 -15 -15 -15 -15 -16 -16 -17 -18 -19 -19 -19 -19 -20 -20 -21
Height
5894 5893 5892 5892 5893 5890 5888 5887 5885 5883 5882 5881 5880 5879 5878 5876 5875 5876 5873 5872 5871 5871 5870 5869 5868 5868 5867 5866 5865 5865 5864 5863 5862 5862 5861 5860 5859 5859 5858 5858 5857 5857 5857 5856 5856 5855 5856 5856 5856
5892 5892 5891 5890 5890 5888 5887 5885 5883 5881 5880 5878 5878 5877 5876 5875 5874 5873 5872 5870 5869 5869 5868 5867 5868 5867 5867 5866 5865 5864 5863 5862 5861 5861 5859 5858 5857 5856 5855 5855 5855 5854 5854 5853 5853 5853 5853 5853 5853
5890 5889 5890 5888 5888 5887 5885 5883 5882 5880 5878 5876 5875 5875 5874 5874 5872 5871 5869 5868 5867 5866 5866 5866 5866 5865 5864 5864 5863 5862 5861 5860 5860 5859 5858 5857 5856 5853 5852 5852 5851 5851 5850 5850 5850 5849 5849 5849 5849
5887 5887 5887 5886 5884 5884 5883 5881 5879 5878 5876 5874 5873 5872 5872 5871 5870 5869 5868 5867 5866 5865 5864 5864 5863 5862 5861 5861 5860 5860 5859 5859 5858 5857 5856 5855 5855 5854 5853 5851 5850 5848 5847 5846 5846 5846 5845 5845 5845
5885 5884 5883 5883 5882 5881 5880 5878 5877 5875 5873 5872 5870 5869 5868 5867 5866 5865 5865 5864 5864 5862 5861 5860 5859 5858 5858 5858 5858 5857 5857 5856 5855 5854 5853 5852 5850 5849 5848 5848 5848 5847 5846 5844 5843 5842 5841 5840 5840
5883 5882 5881 5879 5879 5878 5876 5875 5873 5871 5869 5868 5867 5865 5864 5864 5863 5862 5862 5861 5860 5859 5857 5856 5855 5854 5854 5854 5854 5853 5852 5850 5850 5848 5847 5846 5845 5844 5843 5842 5842 5841 5840 5840 5838 5838 5837 5836 5836
5882 5880 5878 5877 5876 5874 5872 5871 5869 5867 5865 5863 5862 5861 5861 5860 5859 5858 5857 5856 5855 5854 5853 5852 5852 5851 5850 5849 5848 5847 5846 5845 5844 5843 5841 5840 5839 5838 5837 5836 5835 5834 5833 5833 5832 5832 5832 5830 5829
5880 5878 5876 5875 5873 5872 5870 5868 5866 5864 5862 5859 5857 5857 5856 5856 5855 5854 5852 5852 5851 5850 5849 5848 5847 5847 5846 5845 5844 5842 5840 5839 5838 5837 5836 5835 5835 5833 5832 5831 5830 5828 5827 5826 5825 5824 5823 5821 5821
5879 5878 5875 5873 5871 5870 5868 5865 5863 5861 5858 5856 5854 5853 5852 5851 5850 5849 5848 5847 5845 5844 5844 5843 5842 5841 5840 5839 5838 5837 5836 5835 5833 5831 5830 5829 5828 5827 5826 5824 5823 5822 5821 5820 5819 5818 5817 5815 5814
5878 5876 5874 5872 5870 5868 5865 5863 5860 5858 5855 5853 5851 5849 5848 5847 5846 5844 5843 5841 5840 5839 5838 5837 5836 5835 5834 5833 5832 5831 5830 5828 5826 5824 5822 5821 5820 5819 5817 5816 5814 5813 5812 5811 5810 5808 5806 5805 5804
5876 5874 5871 5870 5868 5866 5863 5860 5858 5855 5853 5850 5848 5846 5844 5842 5840 5840 5839 5838 5837 5835 5833 5831 5830 5828 5827 5826 5825 5823 5821 5820 5818 5816 5815 5813 5812 5811 5809 5807 5806 5804 5804 5802 5801 5799 5797 5796 5794
5873 5871 5869 5867 5865 5863 5860 5858 5855 5852 5850 5846 5844 5842 5840 5838 5836 5835 5834 5832 5830 5828 5826 5825 5824 5822 5821 5819 5817 5815 5814 5812 5809 5808 5807 5805 5804 5802 5800 5798 5796 5794 5793 5791 5790 5788 5786 5784 5783
5870 5868 5866 5864 5862 5859 5856 5855 5852 5847 5846 5843 5840 5837 5834 5832 5830 5828 5826 5824 5822 5820 5819 5818 5816 5814 5812 5810 5808 5806 5804 5802 5801 5799 5798 5796 5794 5792 5789 5787 5786 5784 5782 5779 5776 5774 5772 5771 5769
5866 5864 5861 5859 5857 5856 5853 5851 5847 5845 5843 5839 5836 5833 5829 5827 5825 5822 5819 5817 5815 5813 5811 5809 5807 5805 5802 5800 5799 5797 5795 5793 5791 5789 5787 5785 5783 5781 5779 5777 5775 5772 5769 5765 5763 5760 5758 5755 5754
5862 5859 5856 5854 5851 5850 5848 5848 5843 5840 5838 5835 5833 5829 5826 5822 5819 5815 5813 5811 5808 5805 5803 5800 5798 5796 5794 5792 5790 5788 5785 5783 5781 5778 5776 5774 5772 5770 5767 5765 5763 5759 5755 5751 5749 5746 5743 5740 5739
5856 5853 5851 5848 5845 5843 5841 5846 5839 5834 5833 5830 5827 5823 5819 5816 5813 5808 5806 5803 5800 5797 5794 5791 5788 5786 5783 5781 5779 5777 5774 5771 5769 5767 5766 5764 5761 5758 5755 5752 5749 5744 5740 5737 5734 5730 5726 5724 5723
5849 5846 5844 5841 5837 5833 5832 5837 5835 5829 5826 5825 5820 5815 5811 5808 5805 5800 5799 5795 5792 5789 5786 5782 5779 5776 5773 5770 5768 5766 5763 5760 5757 5756 5753 5751 5749 5746 5743 5740 5735 5730 5725 5721 5717 5713 5709 5706 5702
5839 5837 5837 5834 5828 5822 5822 5824 5829 5823 5820 5818 5814 5808 5803 5800 5796 5793 5790 5786 5783 5780 5777 5774 5770 5767 5763 5761 5757 5754 5751 5748 5745 5743 5741 5738 5737 5734 5731 5726 5721 5716 5712 5708 5704 5700 5694 5688 5686
5830 5828 5826 5827 5818 5810 5812 5809 5816 5816 5812 5811 5807 5801 5796 5792 5788 5785 5782 5778 5774 5771 5768 5764 5760 5756 5753 5749 5746 5742 5738 5736 5733 5732 5729 5727 5725 5721 5717 5713 5707 5703 5698 5693 5687 5681 5676 5669 5664
5820 5817 5818 5814 5808 5800 5800 5797 5802 5802 5804 5802 5798 5793 5787 5783 5778 5774 5770 5767 5764 5761 5757 5753 5749 5745 5741 5737 5733 5729 5725 5723 5720 5718 5716 5712 5709 5705 5702 5696 5692 5687 5682 5676 5669 5663 5659 5650 5642
5809 5806 5805 5799 5797 5791 5784 5780 5787 5792 5789 5793 5789 5784 5779 5773 5768 5763 5757 5753 5751 5749 5745 5742 5738 5733 5728 5724 5720 5716 5712 5709 5706 5703 5700 5697 5692 5689 5684 5680 5677 5671 5666 5660 5651 5644 5637 5630 5624
5796 5798 5792 5788 5782 5776 5775 5754 5771 5778 5779 5777 5774 5771 5768 5763 5758 5753 5747 5741 5740 5738 5736 5732 5726 5721 5716 5712 5708 5704 5700 5696 5693 5690 5686 5682 5677 5672 5669 5665 5660 5655 5649 5640 5633 5626 5617 5610 5605
5785 5785 5782 5776 5770 5761 5763 5753 5753 5759 5761 5763 5767 5752 5753 5751 5748 5743 5736 5730 5728 5726 5724 5719 5714 5710 5705 5700 5695 5691 5686 5682 5680 5677 5672 5666 5661 5657 5654 5648 5643 5635 5627 5620 5612 5605 5598 5591 5587
5775 5772 5769 5763 5760 5744 5754 5745 5735 5746 5746 5746 5749 5745 5739 5738 5733 5729 5723 5716 5711 5709 5710 5705 5701 5696 5691 5686 5681 5677 5673 5670 5667 5663 5657 5652 5646 5641 5636 5630 5624 5616 5609 5601 5593 5586 5578 5571 5566
5765 5761 5754 5748 5747 5736 5738 5730 5728 5732 5731 5734 5734 5733 5728 5724 5721 5714 5708 5702 5697 5694 5695 5692 5687 5681 5675 5671 5666 5663 5660 5657 5653 5649 5643 5637 5631 5625 5619 5613 5605 5597 5588 5580 5572 5564 5556 5550 5545
5749 5749 5745 5738 5735 5722 5725 5711 5717 5715 5717 5725 5725 5720 5713 5712 5710 5704 5695 5688 5684 5679 5679 5677 5672 5666 5661 5657 5653 5650 5647 5643 5638 5633 5628 5622 5615 5608 5601 5595 5587 5577 5568 5560 5552 5544 5536 5528 5521
5735 5731 5733 5727 5724 5712 5707 5705 5703 5701 5704 5714 5712 5706 5700 5698 5695 5690 5681 5675 5672 5663 5664 5663 5657 5652 5647 5642 5639 5636 5632 5627 5622 5617 5612 5606 5600 5593 5585 5577 5568 5559 5550 5541 5532 5524 5514 5505 5497
5723 5722 5715 5714 5709 5702 5692 5693 5685 5686 5693 5702 5698 5692 5685 5683 5679 5674 5668 5663 5656 5651 5649 5646 5641 5636 5632 5628 5625 5621 5616 5612 5606 5601 5596 5591 5583 5576 5568 5560 5549 5538 5529 5520 5511 5501 5491 5482 5471
5707 5702 5701 5701 5697 5691 5688 5674 5673 5683 5687 5687 5685 5680 5675 5668 5662 5659 5653 5647 5639 5635 5633 5630 5627 5622 5617 5614 5610 5606 5601 5595 5590 5585 5580 5574 5566 5559 5550 5539 5529 5519 5511 5501 5491 5480 5470 5460 5448
5687 5686 5687 5681 5681 5678 5669 5657 5674 5680 5678 5677 5674 5666 5659 5652 5647 5643 5636 5629 5624 5622 5619 5616 5612 5607 5603 5599 5594 5590 5585 5579 5574 5569 5562 5556 5548 5539 5529 5521 5511 5501 5492 5481 5469 5460 5449 5437 5423
Wind_Speed
5 6 7 6 6 5 6 8 8 7 8 8 8 6 5 5 5 4 3 4 3 4 5 2 1 3 3 2 2 3 3 3 4 4 5 6 8 8 8 8 8 10 11 11 9 8 8 10 13
13 12 9 10 10 9 9 10 11 12 11 11 11 10 9 8 7 7 4 3 6 6 6 6 7 8 8 8 6 6 6 7 7 7 8 9 10 11 11 12 12 13 14 16 16 16 16 13 13
18 17 16 15 13 13 13 14 15 16 16 16 15 13 12 11 11 10 9 7 8 9 8 9 10 10 11 11 10 10 10 11 12 12 11 12 13 13 13 13 15 16 16 17 18 19 21 21 21
18 18 17 18 17 16 16 18 19 20 20 20 19 17 17 15 15 14 12 11 9 11 11 11 12 14 14 13 14 15 15 15 15 16 17 17 16 16 17 17 18 20 20 20 21 23 23 25 26
15 17 18 17 17 17 18 20 21 23 24 24 23 22 20 19 18 18 17 15 13 13 14 15 15 15 15 16 16 16 15 17 17 20 22 21 21 21 22 23 23 23 22 23 25 26 27 27 30
12 14 16 17 19 19 21 22 24 25 25 25 24 23 22 22 21 20 20 19 18 17 15 16 15 15 15 17 18 18 16 16 17 18 20 21 23 25 25 26 27 27 28 28 28 29 29 31 32
11 12 12 13 15 16 16 18 20 19 20 20 21 22 22 21 22 22 22 22 22 20 18 17 19 19 18 18 19 20 21 20 18 18 19 20 21 22 22 24 26 29 31 33 33 34 35 35 36
10 10 11 12 12 14 15 15 15 15 16 18 19 19 20 22 23 23 23 23 23 22 21 20 21 22 22 22 23 24 25 26 24 22 20 20 20 22 22 24 25 27 30 31 35 37 38 38 40
10 9 9 10 12 12 13 13 13 14 15 17 18 18 19 20 22 23 23 24 24 24 22 23 24 24 25 26 27 28 28 28 29 28 29 29 28 30 31 31 29 30 31 34 36 36 34 35 40
10 9 10 11 11 10 11 12 13 14 15 18 17 18 19 20 21 21 22 24 24 23 25 26 27 27 27 29 30 31 31 31 31 31 30 31 32 33 34 36 33 32 34 37 38 41 40 42 42
12 12 11 11 13 15 15 16 16 16 17 17 17 17 18 19 20 22 24 26 26 28 29 29 29 29 31 34 34 33 33 33 32 32 32 32 31 34 38 36 36 36 39 41 40 41 42 44 45
16 16 15 15 14 16 19 18 19 19 16 17 17 19 20 21 23 25 26 26 28 29 30 30 31 32 33 35 37 36 34 35 35 35 33 34 34 37 37 40 41 39 40 43 47 49 50 52 50
20 20 21 20 18 18 19 19 21 25 20 21 21 22 22 23 25 26 28 29 31 33 34 34 35 35 36 37 35 35 35 36 36 36 37 37 38 40 41 42 43 41 43 47 49 52 55 58 60
24 24 25 25 25 23 21 21 23 25 25 25 25 26 26 28 28 28 27 27 30 32 34 36 37 38 38 38 37 36 37 38 38 39 39 40 42 43 45 46 47 48 50 50 52 56 61 64 63
28 28 29 29 29 29 27 20 25 28 28 28 27 29 30 31 32 33 31 29 29 30 33 35 37 39 40 39 39 39 39 41 41 42 44 44 45 46 49 50 51 50 50 50 55 61 64 67 64
35 34 32 33 35 33 34 20 28 31 29 31 30 32 33 32 34 36 33 33 34 33 34 35 37 39 39 39 40 41 42 43 45 47 46 47 48 50 52 51 50 51 51 51 55 62 66 68 68
39 39 37 38 39 41 40 29 28 33 31 29 32 34 36 35 39 38 37 37 35 35 36 37 38 39 40 42 43 44 45 48 49 50 50 49 49 50 52 51 50 52 53 56 61 67 70 72 74
42 40 40 41 44 46 44 40 29 34 33 31 32 34 38 41 39 39 40 39 39 39 39 38 38 39 41 43 43 44 47 48 50 50 51 51 52 54 56 53 53 51 54 59 62 68 72 76 79
41 42 43 41 46 52 49 49 39 35 36 32 34 38 38 39 42 41 41 41 42 43 43 42 42 43 42 42 45 47 48 50 51 51 52 53 55 59 58 55 54 55 58 62 67 71 76 80 80
45 45 44 45 49 55 53 52 46 42 36 35 35 37 39 40 42 42 44 43 44 43 44 43 44 45 46 47 47 49 51 52 53 53 54 55 59 59 57 57 57 58 62 67 73 77 79 77 76
47 47 46 52 52 56 60 57 49 42 42 37 35 37 38 39 40 42 46 49 46 45 47 47 48 47 48 49 49 50 52 53 55 55 55 58 61 59 59 59 59 62 66 72 76 80 76 73 70
48 46 51 54 57 60 58 62 51 48 44 40 42 40 36 35 38 43 48 53 50 47 47 49 50 50 51 51 52 53 54 55 55 55 57 59 59 60 60 61 62 66 72 79 81 80 75 69 65
50 51 53 57 59 63 59 64 59 55 51 49 44 49 36 29 32 40 47 50 49 49 50 49 47 47 48 49 50 51 53 52 52 55 58 59 61 62 61 64 66 70 78 81 83 81 77 74 70
51 53 54 58 60 67 59 64 68 59 59 58 50 39 39 37 40 43 47 53 54 51 43 47 49 51 51 49 48 48 49 49 51 56 60 61 62 63 65 68 71 77 84 84 87 83 79 77 73
51 54 57 61 61 66 65 69 66 64 65 55 47 42 40 46 36 41 46 53 56 57 48 44 47 50 51 51 47 46 47 50 54 59 60 62 63 64 68 71 77 83 87 88 87 85 78 74 74
55 55 56 62 64 70 68 69 68 66 59 51 47 43 41 35 34 42 49 55 54 57 49 47 51 51 48 46 46 46 49 53 56 58 60 64 65 67 72 75 81 86 90 86 85 82 76 76 77
59 60 57 60 64 74 71 65 62 65 60 52 39 39 44 43 38 43 50 54 55 62 57 48 50 49 47 47 47 49 53 54 56 59 60 66 68 69 73 78 85 90 88 85 82 83 80 79 78
60 60 63 61 62 66 65 66 73 74 65 40 42 41 48 49 47 45 51 56 61 62 57 51 48 48 51 51 50 53 54 54 58 61 64 67 69 73 77 81 87 89 89 83 82 82 81 80 84
60 63 63 62 65 68 67 69 72 66 53 45 45 42 45 52 48 49 54 60 64 63 59 54 50 52 54 53 53 54 55 57 59 62 66 68 73 79 79 85 88 87 86 84 84 84 84 85 89
70 68 66 66 65 65 72 68 59 51 56 47 46 47 50 55 50 54 61 67 68 67 60 56 54 56 56 54 54 55 57 60 61 63 67 71 75 79 84 87 88 85 85 82 81 83 87 90 92
Wind_Direction
277 292 303 304 312 313 313 316 319 321 324 334 336 336 332 348 357 15 24 345 303 265 242 232 272 283 256 237 232 267 271 278 283 288 291 299 303 304 306 297 292 298 298 297 291 284 279 284 276
277 278 271 275 281 282 284 290 298 307 309 312 313 312 312 308 307 304 318 319 306 293 291 290 275 269 270 252 256 261 256 262 270 270 270 272 281 287 287 286 287 286 289 295 292 290 284 275 275
268 272 272 268 271 278 278 284 290 300 304 302 298 297 298 294 293 288 291 299 298 295 296 288 279 278 274 275 271 273 275 264 265 270 271 271 269 266 267 271 278 281 280 277 278 280 281 281 276
271 271 277 278 272 267 271 275 282 291 292 291 291 289 286 284 284 283 283 282 288 283 275 275 274 273 269 273 275 276 279 288 296 299 292 287 278 273 273 274 275 274 274 272 271 272 273 277 278
280 276 281 284 283 280 278 278 281 286 289 290 289 291 280 277 275 280 282 284 283 278 272 273 282 282 279 279 275 277 281 288 292 290 286 288 287 286 283 282 281 278 277 276 273 272 271 272 273
290 284 280 279 281 280 279 281 282 284 284 286 287 284 279 276 277 275 277 277 277 279 273 270 273 284 288 285 280 278 275 282 286 287 290 289 289 284 283 282 280 280 278 278 277 279 279 273 268
304 291 287 286 287 285 288 287 286 286 285 287 286 282 279 277 275 274 272 273 273 277 268 267 267 268 272 281 288 283 272 273 278 285 288 290 287 284 284 284 282 281 279 276 273 272 271 274 269
335 315 298 294 293 292 295 296 299 300 296 291 283 282 284 282 280 276 273 275 276 277 270 270 268 265 266 274 277 278 278 275 274 275 278 282 286 282 281 281 284 285 286 285 281 277 274 271 270
340 337 320 304 296 296 295 299 302 300 301 303 309 305 295 286 283 283 282 279 276 273 272 275 272 272 271 271 276 277 273 273 270 272 272 271 277 283 287 292 288 289 288 284 280 278 281 284 282
324 330 330 325 321 316 313 313 313 311 308 307 305 302 297 294 292 290 285 279 273 270 273 275 272 275 275 278 277 276 272 274 270 272 276 277 276 277 280 288 286 289 293 291 286 279 278 275 278
315 312 313 316 316 312 309 311 313 313 323 317 312 307 302 300 296 291 286 282 281 280 279 279 281 280 279 281 282 280 280 278 274 277 278 275 273 277 282 284 284 287 289 290 290 285 279 279 281
302 304 306 305 309 313 312 306 306 304 315 312 311 311 310 308 303 299 292 288 283 281 280 282 283 282 281 282 279 277 276 276 273 275 274 274 277 284 284 284 284 285 290 294 290 289 289 284 283
292 297 300 300 303 305 308 313 311 302 309 313 311 309 310 310 311 307 301 294 290 286 286 286 286 284 285 282 279 278 279 278 279 277 279 278 281 284 288 289 290 288 290 292 292 292 289 286 281
288 294 297 301 302 304 302 310 308 302 306 307 308 307 307 308 311 309 303 302 296 292 288 284 283 283 283 283 282 280 282 282 283 283 282 279 282 283 287 287 287 286 290 291 293 293 292 289 283
288 291 293 297 299 302 302 318 310 303 308 307 303 299 300 300 306 305 299 301 298 293 289 285 284 284 286 286 284 286 284 283 283 284 285 282 283 283 286 288 289 290 291 291 291 291 289 287 286
287 286 289 292 293 294 294 302 308 308 311 306 303 300 297 296 301 300 303 305 300 297 294 289 289 289 288 287 286 286 286 285 284 284 285 283 282 284 287 290 291 291 292 290 292 291 291 291 288
283 285 287 289 291 291 293 297 297 301 302 308 308 300 295 295 298 298 303 301 303 304 302 299 296 292 290 287 285 284 284 284 283 284 284 283 283 285 289 289 287 288 287 288 292 293 293 292 290
283 283 282 286 288 288 290 293 292 295 299 302 303 298 294 293 292 298 301 299 298 299 299 298 293 291 287 284 282 282 282 283 285 285 284 283 283 286 289 286 286 289 288 290 292 294 294 294 293
282 281 282 284 283 285 290 290 292 291 295 300 297 298 294 293 291 293 293 293 296 297 296 294 291 290 290 288 284 283 282 283 285 285 284 284 285 287 288 285 287 288 291 293 295 295 295 295 294
280 281 283 280 282 285 287 287 290 292 293 298 295 295 296 295 291 289 290 291 292 292 297 297 297 293 290 288 288 284 283 283 283 283 284 283 286 288 286 285 286 288 291 294 295 296 296 294 293
277 280 282 283 284 284 287 286 288 289 295 294 295 298 298 293 289 287 286 290 290 288 292 294 297 296 291 290 287 286 285 282 282 282 283 285 287 288 286 286 289 290 292 294 296 298 298 295 291
277 279 281 284 285 287 287 292 289 295 295 301 306 302 298 288 285 284 284 287 291 288 290 293 294 292 291 291 287 283 283 282 282 282 285 288 289 288 287 289 292 293 293 294 297 300 297 293 287
277 278 280 282 284 287 288 292 298 297 302 303 307 309 302 289 282 281 284 288 289 287 291 292 289 291 293 290 289 284 282 281 281 284 288 289 289 289 288 290 294 293 293 296 300 302 299 296 288
274 277 279 280 283 285 293 292 293 298 302 305 313 312 306 305 297 293 290 288 288 289 290 288 291 287 288 292 290 287 283 282 283 288 289 289 290 290 291 293 293 294 296 301 304 304 301 296 292
273 276 278 279 283 287 290 289 292 299 299 305 309 309 302 304 295 292 290 289 289 291 291 289 290 288 288 290 288 287 284 284 289 290 290 291 291 291 292 294 294 295 299 303 305 306 303 299 296
271 271 272 280 283 285 284 286 294 295 296 304 310 310 309 317 297 292 289 288 289 290 294 291 290 289 290 289 288 287 288 290 290 290 292 291 292 292 294 295 295 297 304 307 307 307 303 300 297
269 270 274 275 278 282 286 289 292 291 298 311 316 311 309 308 300 292 293 295 293 290 295 294 292 292 289 288 287 289 289 289 290 291 291 290 291 293 295 297 296 301 306 308 310 307 302 300 299
273 276 275 276 277 278 283 288 289 290 297 313 318 310 307 307 305 292 291 291 289 291 296 296 293 290 286 288 287 289 288 289 290 290 289 292 291 293 295 297 298 303 305 308 309 307 303 301 299
269 269 269 272 273 278 286 281 286 293 304 310 312 305 303 302 299 292 288 287 287 289 293 295 292 288 285 287 288 287 287 289 289 290 291 292 292 293 295 296 300 305 308 309 309 307 305 304 301
269 267 271 276 282 283 278 276 285 297 296 300 303 303 297 292 297 292 286 285 287 291 293 294 290 287 284 285 286 285 287 289 289 290 291 292 293 296 296 298 302 306 308 310 309 307 307 306 304